Погода в Осиновском

Россия / Саратовская область     51°34′34″N   46°48′23″E
В апреле 2022 года жителям России запретили посещать сайт meteo.paraplan.net по решению Генеральной прокуратуры. Аудитория сайта уменьшилась в 10 раз. Владельцы сайта не видят смысла в поддержке погодного сервера в таких условиях. Сайт будет закрыт в октябре.
темп.,
°C
ветер,
м/с
пор.,
м/с
влажн.,
%
обл.,
%
осадки,
мм/ч
давл.,
гПа
погр.,
м
29 сентября, чт
чт2901:00+15ю4888100 0.0 1006373
04:00+14юз259781 2.4 1006191
07:00+15ю4898100 0.7 1006277
10:00+16юз589097 2.7 1006517
13:00+19зсз567264 0.8 1008910
16:00+21сз465428 0.8 10091599
19:00+16ссз47710 0.0 1012120
22:00+14с37865 0.0 1014138
30 сентября, пт
пт3001:00+13с3591100 0.0 1016105
04:00+12с239071 0.0 101735
07:00+11с229137 0.0 101911
10:00+15ссв1174100 0.0 1020325
13:00+18св2162100 0.0 1021897
16:00+19св1157100 0.0 10211043
19:00+16в2371100 0.0 102228
22:00+14вюв3480100 0.0 102279
1 октября, сб
сб101:00+14юв2381100 0.0 102251
04:00+13вюв228478 0.0 102320
07:00+12юв228853 0.0 102324
10:00+17юв3368100 0.0 1023389
13:00+20ююв345467 0.0 10221005
16:00+22ююв3450100 0.0 10201324
19:00+18юв3563100 0.0 102091
22:00+16ююв487086 0.0 1019146
2 октября, вс
вс201:00+16ююв4974100 0.0 1018156
04:00+16ююв377593 0.0 1017123
07:00+15ююв41077100 0.0 1017192
10:00+19ю576182 0.1 1016352
13:00+24ююз6849100 0.2 10151290
16:00+24ююз6747100 0.3 10141307
19:00+19ююз2369100 1.9 101325
22:00+18ю41070100 2.5 1013203
3 октября, пн
пн301:00+17ю31075100 1.1 1013235
04:00+17ююв487199 2.1 1013164
07:00+15ююв51269100 0.0 1014279
10:00+19ююв81547100 0.0 1014591
13:00+22ююв101434100 0.0 10141213
16:00+21ююв91538100 0.0 10151173
19:00+19ююв91538100 0.0 1016977
22:00+18ююв101734100 0.0 1016839